[[{"header":{"parameterUnit":"m.s-1","parameterCategory":1,"la1":30.2991,"la2":30.254,"lo1":-89.0895,"lo2":-89.0444,"dy":0.0017,"dx":0.0017,"nx":28,"ny":28,"refTime":"2026-02-17T03:00:00:Z","depth":0,"parameterNumber":2,"parameterNumberName":"U-component_of_WINDS"},"data":[0,0,0,0,0,0,0,0,0,0,0,0,0,0,0,0,0,0,0,0,0,0,0,0,0,0,0,0,0,0,0,0,0,0,0,0,0,0,0,0,0,0,0,0,0,0,0,0,0,0,0,0,0,0,0,0,0,0,0.3589,0.359,0,0.3606,0.3606,0.3606,0.3628,0.3629,0.3629,0.3629,0.3648,0.3648,0.3648,0,0,0,0,0,0,0,0,0,0,0,0,0,0.3582,0.3582,0.3589,0.359,0.359,0.3605,0.3606,0.3606,0.3628,0.3629,0.3629,0.363,0.3648,0.3648,0.3648,0,0,0,0,0,0,0,0,0,0,0,0,0,0.359,0.3582,0.3589,0.3603,0.3604,0.3605,0.3606,0.3606,0.3628,0.3629,0.3629,0.363,0.3648,0.3648,0.3648,0.3638,0,0,0.3649,0.3649,0,0,0,0,0,0,0,0,0.359,0.3591,0.3601,0.3602,0.3603,0.3615,0.361,0.3617,0.3628,0.3619,0.3629,0.363,0.3637,0.3638,0.364,0.3639,0.364,0.3649,0.3649,0.3649,0.3649,0,0,0,0,0,0,0,0.3589,0.359,0.3596,0.3601,0.3602,0.3609,0.3611,0.3611,0.3625,0.362,0.3622,0.3623,0.3638,0.3639,0.364,0.364,0.3649,0.3649,0.3649,0.3649,0.3636,0.3635,0,0,0,0,0,0,0.3586,0.3589,0.3595,0.3596,0.3598,0.3609,0.3611,0.3611,0.3625,0.3627,0.3623,0.3624,0.3639,0.364,0.3641,0.3632,0.3649,0.3649,0.3649,0.3636,0.3636,0.3635,0,0,0,0,0,0,0.3586,0.3586,0.3595,0.3593,0.3595,0.3608,0.3608,0.3611,0.3613,0.3627,0.3629,0.3622,0.3639,0.3641,0.3639,0.3633,0.3649,0.3649,0.3637,0.3636,0.3635,0.3613,0,0,0,0,0,0,0.3586,0.3586,0.3581,0.3593,0.3595,0.3591,0.3608,0.3611,0.3613,0.3615,0.3627,0.3629,0.364,0.3639,0.364,0.3634,0.365,0.3637,0.3636,0.3636,0.3615,0.3612,0.3609,0,0,0,0,0,0.3585,0.3574,0.3581,0.3582,0.3589,0.3591,0.3592,0.3604,0.3612,0.3608,0.3618,0.3629,0.3634,0.3639,0.3639,0.3634,0.3638,0.3637,0.3636,0.3616,0.3612,0.361,0,0,0,0,0,0,0.3561,0.3576,0.3583,0.3576,0.3582,0.3594,0.359,0.36,0.3604,0.3606,0.3621,0.3624,0.3621,0.3627,0.3632,0.3627,0.3638,0.3637,0.3622,0.3619,0.3617,0.3615,0.365,0,0,0,0,0,0.3555,0.3554,0.3568,0.356,0.3562,0.3576,0.3577,0.3586,0.3593,0.3596,0.3605,0.3612,0.3616,0.3618,0.3622,0.3616,0.362,0.3613,0.361,0.3608,0.3607,0.3607,0.3605,0.3631,0.3631,0.3631,0,0,0.3542,0.355,0.3549,0.3555,0.3561,0.3561,0.3577,0.3577,0.3578,0.3596,0.3595,0.3603,0.3612,0.3609,0.3608,0.3614,0.3601,0.3607,0.3605,0.3605,0.3606,0.3603,0.3601,0.3631,0.3631,0.3631,0,0,0.3519,0.3524,0.3519,0.3525,0.3534,0.3544,0.3543,0.3554,0.356,0.356,0.3574,0.3577,0.3582,0.3589,0.3593,0.3576,0.3587,0.3577,0.3564,0.3564,0.3562,0.356,0.3556,0.3554,0.3576,0.3576,0.3576,0,0.3502,0.3502,0.3515,0.3514,0.3518,0.3535,0.3531,0.3537,0.3547,0.3549,0.3556,0.3565,0.3572,0.3572,0.3569,0.3571,0.3572,0.3576,0.3561,0.3559,0.3558,0.3554,0.3552,0.3575,0.3575,0.3575,0.3575,0,0.3482,0.3482,0.3477,0.3487,0.349,0.3487,0.3502,0.3504,0.3513,0.3523,0.3524,0.3534,0.3542,0.3543,0.3551,0.3545,0.3549,0.3558,0.3569,0.3554,0.3551,0.3549,0.3573,0.3574,0.3574,0.3574,0,0,0.3442,0.3461,0.3459,0.3465,0.3477,0.3478,0.3478,0.3485,0.3488,0.3495,0.3496,0.3502,0.3511,0.3516,0.3527,0.3527,0.3515,0.3536,0.3537,0.3533,0.3511,0.3504,0.3502,0.3523,0.3523,0.3523,0.3511,0,0.3422,0.3421,0.3435,0.3431,0.3433,0.3451,0.3451,0.346,0.347,0.3474,0.3485,0.3489,0.3501,0.3504,0.3505,0.3516,0.3511,0.3517,0.3526,0.3526,0.3523,0.35,0.3492,0.3481,0.3509,0.3509,0.3509,0,0.3397,0.3404,0.3401,0.3416,0.3417,0.3417,0.3427,0.343,0.3441,0.3449,0.3456,0.3468,0.3471,0.3482,0.3488,0.3492,0.3497,0.3503,0.3503,0.3505,0.3516,0.3502,0.3477,0.3475,0.3507,0.3507,0.3507,0,0.3371,0.3379,0.3378,0.3382,0.34,0.34,0.3407,0.3419,0.3424,0.3433,0.3436,0.3445,0.345,0.3458,0.3474,0.348,0.3478,0.349,0.3486,0.3485,0.3484,0.3484,0.346,0.3486,0.3486,0.3486,0.3486,0,0.3347,0.3344,0.3367,0.3366,0.3365,0.3382,0.3381,0.339,0.3402,0.3405,0.3422,0.3425,0.3445,0.3451,0.3463,0.3467,0.3469,0.3476,0.348,0.3475,0.3474,0.3478,0.348,0.3486,0.3486,0.3486,0.3486,0,0.3316,0.333,0.3332,0.3349,0.3354,0.3352,0.3368,0.3369,0.3381,0.3385,0.3388,0.3406,0.3414,0.3431,0.3443,0.3452,0.3454,0.3459,0.345,0.3452,0.3447,0.3447,0.3425,0.3424,0.345,0.345,0.3449,0,0.33,0.3299,0.3316,0.332,0.3327,0.3332,0.3337,0.3355,0.336,0.3375,0.3375,0.3385,0.3393,0.3406,0.3422,0.3432,0.3439,0.343,0.344,0.3437,0.344,0.344,0.3441,0.3428,0.3428,0.3427,0.3427,0,0.3271,0.3279,0.3285,0.3295,0.33,0.3309,0.3318,0.332,0.3341,0.3346,0.3355,0.3362,0.3376,0.3386,0.3399,0.3409,0.3422,0.3424,0.3424,0.3419,0.3414,0.3418,0.3444,0.3424,0.3425,0.3425,0.3425,0.3425,0.3247,0.3248,0.3261,0.3269,0.3278,0.3287,0.329,0.3303,0.3311,0.3323,0.3334,0.3342,0.3357,0.3376,0.3386,0.3394,0.34,0.3399,0.3399,0.3399,0.3397,0.3413,0.3396,0.3396,0.3396,0.3396,0.3397,0,0.322,0.323,0.3237,0.325,0.3257,0.3268,0.3281,0.3285,0.3293,0.3305,0.3314,0.3325,0.3336,0.3353,0.3366,0.3369,0.3376,0.3372,0.3372,0.3375,0.339,0.339,0.3367,0.3367,0.3367,0.3367,0.3367,0.3367,0.3206,0.3209,0.3219,0.3227,0.3238,0.3246,0.3252,0.3262,0.3272,0.3284,0.3293,0.3304,0.332,0.3334,0.3345,0.335,0.3355,0.3349,0.3356,0.3371,0.3373,0.3376,0.3376,0.335,0.335,0.334,0.334,0.334]},{"header":{"parameterUnit":"m.s-1","parameterCategory":1,"la1":30.2991,"la2":30.254,"lo1":-89.0895,"lo2":-89.0444,"dy":0.0017,"dx":0.0017,"nx":28,"ny":28,"refTime":"2026-02-17T03:00:00:Z","depth":0,"parameterNumber":3,"parameterNumberName":"V-component_of_WINDS"},"data":[0,0,0,0,0,0,0,0,0,0,0,0,0,0,0,0,0,0,0,0,0,0,0,0,0,0,0,0,0,0,0,0,0,0,0,0,0,0,0,0,0,0,0,0,0,0,0,0,0,0,0,0,0,0,0,0,0,0,2.6072,2.6073,0,2.6087,2.6087,2.6088,2.6091,2.6091,2.6091,2.6091,2.6104,2.6105,2.6105,0,0,0,0,0,0,0,0,0,0,0,0,0,2.6047,2.6048,2.6072,2.6073,2.6073,2.6087,2.6087,2.6088,2.6091,2.6091,2.6091,2.6091,2.6104,2.6105,2.6105,0,0,0,0,0,0,0,0,0,0,0,0,0,2.606,2.6048,2.6072,2.6076,2.6077,2.6087,2.6087,2.6088,2.6091,2.6091,2.6091,2.6091,2.6104,2.6105,2.6105,2.6112,0,0,2.6107,2.6108,0,0,0,0,0,0,0,0,2.6059,2.606,2.6076,2.6076,2.6077,2.6087,2.6083,2.6096,2.6091,2.6086,2.6091,2.6091,2.6099,2.61,2.6103,2.6113,2.6113,2.6107,2.6108,2.6108,2.6108,0,0,0,0,0,0,0,2.6058,2.606,2.6078,2.6076,2.6076,2.6077,2.6079,2.6086,2.6093,2.6086,2.6087,2.6088,2.6099,2.6102,2.6103,2.6114,2.6107,2.6108,2.6108,2.6109,2.6133,2.6133,0,0,0,0,0,0,2.6057,2.6059,2.6078,2.6079,2.6067,2.6078,2.608,2.6084,2.6093,2.6094,2.6089,2.6089,2.6101,2.6102,2.6104,2.6114,2.6108,2.6109,2.6109,2.6133,2.6133,2.6133,0,0,0,0,0,0,2.6056,2.6058,2.6077,2.6069,2.6072,2.6079,2.6083,2.6084,2.6088,2.6094,2.6096,2.6091,2.6101,2.6103,2.6111,2.6115,2.6109,2.611,2.6132,2.6133,2.6133,2.6134,0,0,0,0,0,0,2.6055,2.6058,2.606,2.6069,2.6072,2.6084,2.6083,2.6085,2.6089,2.6089,2.6097,2.6098,2.6101,2.611,2.6112,2.6115,2.611,2.6132,2.6132,2.6133,2.6134,2.6134,2.6135,0,0,0,0,0,2.6054,2.6059,2.606,2.6063,2.6075,2.6084,2.6086,2.609,2.6089,2.6092,2.6097,2.6097,2.6114,2.6111,2.6112,2.6117,2.6132,2.6132,2.6133,2.6133,2.6134,2.6135,0,0,0,0,0,0,2.6049,2.606,2.6062,2.6069,2.6076,2.6085,2.6088,2.609,2.6097,2.6096,2.6101,2.6103,2.6111,2.6114,2.6111,2.6125,2.6123,2.6124,2.6123,2.6123,2.6124,2.6123,2.6111,0,0,0,0,0,2.6049,2.6056,2.6065,2.6071,2.6074,2.6081,2.6085,2.6088,2.6094,2.6097,2.6102,2.6108,2.6115,2.6119,2.6126,2.6134,2.6137,2.6138,2.6139,2.6139,2.614,2.6147,2.6149,2.6135,2.6135,2.6135,0,0,2.6048,2.6055,2.6059,2.607,2.6075,2.6082,2.6083,2.6089,2.6095,2.6098,2.6106,2.6111,2.6118,2.6127,2.6131,2.613,2.6145,2.614,2.614,2.6141,2.6148,2.6149,2.6151,2.6135,2.6135,2.6135,0,0,2.6051,2.6057,2.6063,2.607,2.6078,2.6083,2.6085,2.6094,2.6098,2.6107,2.611,2.6116,2.6127,2.6133,2.6137,2.6146,2.6147,2.6148,2.6151,2.6158,2.6159,2.616,2.6165,2.6166,2.6149,2.6149,2.6149,0,2.6049,2.606,2.6066,2.6074,2.6079,2.6084,2.6091,2.6097,2.6107,2.6111,2.6109,2.6126,2.613,2.6142,2.6145,2.6147,2.615,2.6147,2.6159,2.616,2.6161,2.6165,2.6167,2.6149,2.6149,2.6149,2.6149,0,2.6058,2.6066,2.6071,2.6083,2.6088,2.6096,2.6103,2.6108,2.6112,2.6117,2.6127,2.6134,2.6143,2.6146,2.6148,2.6159,2.6158,2.6158,2.6156,2.6162,2.6167,2.6168,2.6149,2.6149,2.6149,2.6149,0,0,2.6057,2.6074,2.6075,2.6082,2.6094,2.61,2.6108,2.6118,2.6124,2.6131,2.6139,2.615,2.6151,2.6156,2.6159,2.6165,2.6174,2.6164,2.6164,2.6167,2.6188,2.6189,2.6191,2.6175,2.6175,2.6176,2.6188,0,2.6062,2.6078,2.6085,2.6098,2.6106,2.6112,2.6119,2.6128,2.6133,2.6142,2.6148,2.6156,2.6155,2.6159,2.6165,2.6171,2.6178,2.617,2.6183,2.6184,2.6182,2.6193,2.6193,2.6205,2.619,2.619,2.619,0,2.607,2.608,2.6094,2.6107,2.6111,2.6118,2.6129,2.6137,2.6147,2.6151,2.6158,2.6162,2.6172,2.6169,2.6184,2.6178,2.6184,2.6188,2.6189,2.6191,2.6188,2.6197,2.6208,2.6211,2.6193,2.6193,2.6192,0,2.6069,2.6086,2.6097,2.6102,2.6118,2.6123,2.6129,2.6139,2.6146,2.6156,2.6161,2.6171,2.6177,2.6185,2.6192,2.6189,2.6207,2.6204,2.6211,2.6211,2.6214,2.6214,2.6229,2.6216,2.6216,2.6216,2.6216,0,2.6075,2.6084,2.6098,2.6105,2.6116,2.6124,2.6134,2.6141,2.6151,2.616,2.6164,2.6173,2.6181,2.6191,2.6196,2.6209,2.6211,2.6215,2.6216,2.6215,2.6215,2.6219,2.6219,2.6217,2.6217,2.6217,2.6217,0,2.6076,2.6085,2.6098,2.6113,2.6117,2.6124,2.6137,2.6144,2.6151,2.6163,2.6166,2.6177,2.6189,2.6197,2.6211,2.6215,2.6229,2.623,2.6226,2.6227,2.6234,2.6234,2.6253,2.6257,2.6241,2.6241,2.6241,0,2.6079,2.6086,2.6103,2.611,2.6117,2.6128,2.6136,2.6144,2.6152,2.6166,2.6172,2.6185,2.6196,2.6215,2.6224,2.6236,2.6237,2.6243,2.6239,2.6238,2.6239,2.6239,2.6241,2.6244,2.6244,2.6244,2.6244,0,2.6084,2.609,2.6101,2.6115,2.6124,2.6135,2.6146,2.6151,2.6162,2.6171,2.6184,2.6192,2.6209,2.6222,2.6235,2.6242,2.6246,2.6246,2.6248,2.6247,2.6246,2.6249,2.6229,2.6245,2.6245,2.6245,2.6245,2.6245,2.6088,2.6096,2.6109,2.6122,2.6132,2.6143,2.6152,2.6161,2.6172,2.6187,2.6192,2.6206,2.6219,2.6237,2.6245,2.6256,2.6256,2.6259,2.626,2.6261,2.6262,2.6244,2.6258,2.6258,2.6258,2.6258,2.6258,0,2.6095,2.6105,2.6117,2.6133,2.6144,2.6147,2.616,2.6169,2.6182,2.6194,2.6205,2.6222,2.6235,2.6246,2.626,2.6268,2.627,2.6271,2.6271,2.6273,2.6261,2.6258,2.6269,2.6269,2.6269,2.6269,2.6269,2.6269,2.61,2.6114,2.6122,2.6142,2.6151,2.6166,2.6174,2.6184,2.6194,2.6213,2.6225,2.6233,2.6245,2.626,2.6273,2.6276,2.6282,2.6283,2.6287,2.6275,2.6274,2.6273,2.627,2.6284,2.6284,2.6299,2.6299,2.6299]}]]